This demonstration page uses our WeatherBlox Daily Observations layout. Learn more.

Left ArrowRight Arrow

53.62937, 11.41316

Hourly Observations for February 16, 2018

Temp ( °F °C ) Dew Point ( °F °C ) Humidity (%) Winds ( mph kmh ) Pressure ( in mb ) Visibility ( mi km ) Precip ( " mm )
5:20 am 05:20 Mostly Clear with Mist and Fog 32 0 32 0 100 100 WSW 9 15 30.03 1017 2 4 N/A
5:50 am 05:50 Mostly Clear with Mist and Fog 32 0 30 -1 93 93 WSW 10 17 30.03 1017 3 5 N/A
6:20 am 06:20 Mostly Clear 30 -1 28 -2 93 93 WSW 9 15 30.03 1017 4 6 N/A
6:50 am 06:50 Mostly Clear 32 0 30 -1 93 93 WSW 9 15 30.06 1018 4 7 N/A
7:20 am 07:20 Mostly Clear 34 1 32 0 93 93 WSW 10 17 30.06 1018 4 7 N/A
7:50 am 07:50 Mostly Sunny 34 1 30 -1 87 87 WSW 9 15 30.06 1018 4 7 N/A
8:20 am 08:20 Mostly Sunny 34 1 32 0 93 93 WSW 9 15 30.06 1018 4 6 N/A
8:50 am 08:50 Mostly Sunny 34 1 32 0 93 93 WSW 10 17 30.09 1019 4 6 N/A
9:20 am 09:20 Mostly Sunny 34 1 32 0 93 93 WSW 10 17 30.09 1019 4 6 N/A
9:50 am 09:50 Mostly Sunny 36 2 34 1 93 93 SW 10 17 30.12 1020 4 7 N/A
10:20 am 10:20 Mostly Sunny 36 2 34 1 93 93 WSW 12 19 30.12 1020 5 8 N/A
10:50 am 10:50 Mostly Sunny 37 3 36 2 93 93 WSW 13 20 30.12 1020 6 9 N/A
11:20 am 11:20 Partly Cloudy 37 3 34 1 87 87 WSW 15 24 30.15 1021 30 48 N/A
11:50 am 11:50 Partly Cloudy 39 4 36 2 87 87 WSW 14 22 30.15 1021 30 48 N/A
12:20 pm 12:20 Partly Cloudy 41 5 36 2 81 81 WSW 14 22 30.15 1021 30 48 N/A
12:50 pm 12:50 Mostly Cloudy 41 5 36 2 81 81 WSW 16 26 30.15 1021 30 48 N/A
1:20 pm 13:20 Mostly Cloudy 39 4 36 2 87 87 WSW 15 24 30.18 1022 30 48 N/A
1:50 pm 13:50 Cloudy 41 5 36 2 81 81 SW 14 22 30.18 1022 30 48 N/A
2:20 pm 14:20 Mostly Cloudy 39 4 34 1 81 81 WSW 12 19 30.18 1022 30 48 N/A
2:50 pm 14:50 Mostly Cloudy 41 5 36 2 81 81 WSW 14 22 30.18 1022 30 48 N/A
3:20 pm 15:20 Mostly Cloudy 41 5 34 1 76 76 WSW 13 20 30.18 1022 30 48 N/A
3:50 pm 15:50 Mostly Cloudy 41 5 34 1 76 76 WSW 15 24 30.18 1022 30 48 N/A
4:20 pm 16:20 Mostly Cloudy 39 4 34 1 81 81 WSW 13 20 30.18 1022 30 48 N/A
4:50 pm 16:50 Mostly Cloudy 39 4 32 0 75 75 WSW 13 20 30.18 1022 30 48 N/A
5:20 pm 17:20 Partly Cloudy 37 3 32 0 81 81 WSW 10 17 30.21 1023 30 48 N/A
5:50 pm 17:50 Mostly Clear 36 2 30 -1 81 81 WSW 10 17 30.21 1023 30 48 N/A

Powered by AerisWeather